TimeEDT,TemperatureF,Dew PointF,Humidity,Sea Level PressureIn,VisibilityMPH,Wind Direction,Wind SpeedMPH,Gust SpeedMPH,PrecipitationIn,Events,Conditions,WindDirDegrees,DateUTC
12:15 AM,53.6,33.8,47,29.76,10.0,WSW,5.8,-,N/A,,Overcast,250,2011-10-16 04:15:00
12:35 AM,55.4,33.8,44,29.77,10.0,WSW,9.2,-,N/A,,Overcast,240,2011-10-16 04:35:00
12:55 AM,55.4,33.8,44,29.78,10.0,West,6.9,17.3,N/A,,Overcast,260,2011-10-16 04:55:00
1:15 AM,55.4,33.8,44,29.77,10.0,West,8.1,16.1,N/A,,Overcast,260,2011-10-16 05:15:00
1:35 AM,55.4,33.8,44,29.78,10.0,WSW,6.9,-,N/A,,Mostly Cloudy,240,2011-10-16 05:35:00
1:55 AM,53.6,33.8,47,29.78,10.0,WSW,9.2,-,N/A,,Partly Cloudy,240,2011-10-16 05:55:00
2:15 AM,53.6,33.8,47,29.78,10.0,WSW,4.6,-,N/A,,Clear,240,2011-10-16 06:15:00
2:35 AM,51.8,33.8,50,29.78,10.0,WSW,4.6,-,N/A,,Clear,250,2011-10-16 06:35:00
2:55 AM,51.8,33.8,50,29.78,10.0,WSW,5.8,-,N/A,,Clear,250,2011-10-16 06:55:00
3:15 AM,51.8,33.8,50,29.78,10.0,WSW,4.6,-,N/A,,Clear,250,2011-10-16 07:15:00
3:35 AM,51.8,33.8,50,29.78,10.0,WSW,4.6,-,N/A,,Clear,250,2011-10-16 07:35:00
3:55 AM,50.0,33.8,54,29.78,10.0,WSW,4.6,-,N/A,,Scattered Clouds,240,2011-10-16 07:55:00
4:15 AM,48.2,33.8,58,29.78,10.0,WSW,3.5,-,N/A,,Mostly Cloudy,250,2011-10-16 08:15:00
4:55 AM,50.0,35.6,58,29.79,10.0,WSW,3.5,-,N/A,,Overcast,250,2011-10-16 08:55:00
5:15 AM,50.0,35.6,58,29.80,10.0,WSW,5.8,-,N/A,,Scattered Clouds,250,2011-10-16 09:15:00
5:35 AM,50.0,35.6,58,29.80,10.0,WSW,4.6,-,N/A,,Mostly Cloudy,240,2011-10-16 09:35:00
5:55 AM,48.2,35.6,62,29.81,10.0,WSW,3.5,-,N/A,,Overcast,250,2011-10-16 09:55:00
6:45 AM,50.0,35.6,58,29.82,10.0,West,6.9,-,N/A,,Mostly Cloudy,260,2011-10-16 10:45:00
7:45 AM,51.8,35.6,54,29.85,10.0,West,6.9,-,N/A,,Mostly Cloudy,260,2011-10-16 11:45:00
8:45 AM,51.8,37.4,58,29.87,10.0,WSW,11.5,-,N/A,,Partly Cloudy,250,2011-10-16 12:45:00
11:45 AM,57.2,37.4,48,29.86,10.0,West,11.5,23.0,N/A,,Scattered Clouds,260,2011-10-16 15:45:00
12:55 PM,60.8,39.2,45,29.86,10.0,West,11.5,19.6,N/A,,Scattered Clouds,270,2011-10-16 16:55:00
1:45 PM,60.8,37.4,42,29.84,10.0,West,11.5,17.3,N/A,,Scattered Clouds,270,2011-10-16 17:45:00
2:45 PM,60.8,39.2,45,29.83,10.0,West,5.8,17.3,N/A,,Scattered Clouds,270,2011-10-16 18:45:00
3:45 PM,62.6,39.2,42,29.79,10.0,West,6.9,16.1,N/A,,Scattered Clouds,270,2011-10-16 19:45:00
4:45 PM,60.8,39.2,45,29.77,10.0,WSW,5.8,-,N/A,,Mostly Cloudy,250,2011-10-16 20:45:00
5:45 PM,60.8,37.4,42,29.76,10.0,WSW,6.9,17.3,N/A,,Scattered Clouds,250,2011-10-16 21:45:00
6:45 PM,57.2,39.2,51,29.76,10.0,SW,5.8,-,N/A,,Mostly Cloudy,220,2011-10-16 22:45:00
7:45 PM,57.2,39.2,51,29.76,10.0,SW,9.2,-,N/A,,Overcast,230,2011-10-16 23:45:00
8:45 PM,57.2,41.0,55,29.76,10.0,SW,9.2,17.3,N/A,,Overcast,230,2011-10-17 00:45:00
9:15 PM,59.0,41.0,51,29.75,10.0,SW,9.2,16.1,N/A,,Overcast,220,2011-10-17 01:15:00
9:35 PM,59.0,41.0,51,29.74,10.0,SW,8.1,-,N/A,,Overcast,220,2011-10-17 01:35:00
9:55 PM,59.0,41.0,51,29.74,10.0,SSW,9.2,17.3,N/A,,Overcast,210,2011-10-17 01:55:00
10:15 PM,59.0,41.0,51,29.73,10.0,SSW,9.2,-,N/A,,Overcast,200,2011-10-17 02:15:00
10:35 PM,59.0,42.8,55,29.73,10.0,SSW,10.4,18.4,N/A,,Overcast,200,2011-10-17 02:35:00
10:55 PM,59.0,42.8,55,29.71,10.0,SSW,12.7,18.4,N/A,,Overcast,200,2011-10-17 02:55:00
11:15 PM,60.8,42.8,52,29.70,10.0,SSW,10.4,-,N/A,,Overcast,210,2011-10-17 03:15:00
11:35 PM,60.8,42.8,52,29.69,10.0,SSW,11.5,19.6,N/A,,Overcast,210,2011-10-17 03:35:00
11:55 PM,60.8,42.8,52,29.68,10.0,SSW,9.2,-,N/A,,Overcast,210,2011-10-17 03:55:00